Retour au catalogue

STARLINK-34068

ActifCommunicationsVLEO
NORAD 63914·PAYLOAD·🇺🇸 United States

Lancé May 10, 2025 depuis Cape Canaveral Space Force Station

Loading…

Prochains Passages (prochaines 24 heures)

TLE

FraisSource: CelesTrak SupGP

Époque: Sep 14, 2026, 21:39 UTC

1 63914C 25095AA  26257.90256944 -.00017178  00000+0 -62206-3 0  2576
2 63914  43.0007 187.4822 0001343 266.5376 224.4009 15.27593921    13

Suivez STARLINK-34068 en temps réel avec AllMySat

Download on the App Store